EW6114 Weather Reports


Display with metric or nautical units.
time (UTC)temp
F
wind
direction
speed
MPH
gust
MPH
rain 1hr
in
rain 24hr
in
rain mn
in
humidity
%
barometer
mb
20260504191324 0 208 0.0 0.0 0.00 0.00 0.00 1067.3
20260504190804 0 225 0.0 0.0 0.00 0.00 0.00 1067.3
20260504190252 0 216 0.0 0.0 0.00 0.00 0.00 1067.3
20260504185731 0 216 0.0 0.0 0.00 0.00 0.00 1067.2
20260504185223 0 216 0.0 0.0 0.00 0.00 0.00 1067.2
20260504184657 0 216 0.0 0.0 0.00 0.00 0.00 1067.2
20260504184148 0 216 0.0 0.0 0.00 0.00 0.00 1067.2
20260504183922 0 216 0.0 0.0 0.00 0.00 0.00 1067.1
20260504183136 0 216 0.0 0.0 0.00 0.00 0.00 1067.1
20260504182550 0 216 0.0 0.0 0.00 0.00 0.00 1067.0
20260504182017 0 216 0.0 0.0 0.00 0.00 0.00 1067.0
20260504181456 0 216 0.0 0.0 0.00 0.00 0.00 1067.0
20260504180946 0 216 0.0 0.0 0.00 0.00 0.00 1066.8
20260504180651 0 216 0.0 0.0 0.00 0.00 0.00 1067.0
20260504175856 0 216 0.0 0.0 0.00 0.00 0.00 1067.0
20260504175622 0 216 0.0 0.0 0.00 0.00 0.00 1067.0
20260504174849 0 216 0.0 0.0 0.00 0.00 0.00 1067.1
20260504174331 0 216 0.0 0.0 0.00 0.00 0.00 1067.1
20260504174019 0 216 0.0 0.0 0.00 0.00 0.00 1067.0
20260504173247 0 216 0.0 0.0 0.00 0.00 0.00 1067.0
20260504172747 0 216 0.0 0.0 0.00 0.00 0.00 1067.0
20260504172509 0 216 0.0 0.0 0.00 0.00 0.00 1067.1
20260504171651 0 216 0.0 0.0 0.00 0.00 0.00 1067.1
20260504171152 0 216 0.0 0.0 0.00 0.00 0.00 1067.2
20260504170636 0 216 0.0 0.0 0.00 0.00 0.00 1067.2
20260504160250 0 224 0.0 0.0 0.00 0.00 0.00 1067.1
20260504150949 0 224 0.0 0.0 0.00 0.00 0.00 1067.0
20260504150412 0 224 0.0 0.0 0.00 0.00 0.00 1067.0
20260504141259 0 224 0.0 0.0 0.00 0.00 0.00 1066.6
20260504140747 0 224 0.0 0.0 0.00 0.00 0.00 1066.6
20260504140244 0 224 0.0 0.0 0.00 0.00 0.00 1066.6
20260504130449 0 224 0.0 0.0 0.00 0.00 0.00 1066.5
20260504120152 0 223 0.0 0.0 0.00 0.00 0.00 1066.2
20260504110355 0 223 0.0 0.0 0.00 0.00 0.00 1065.6
20260504100555 0 225 0.0 0.0 0.00 0.00 0.00 1064.7
20260504081826 0 226 0.0 0.0 0.00 0.00 0.00 1063.1
20260504081554 0 248 0.0 0.0 0.00 0.00 0.00 1063.0
20260504080823 0 196 0.0 0.0 0.00 0.00 0.00 1062.9
20260504080322 0 248 0.0 0.0 0.00 0.00 0.00 1062.9
20260504070222 0 222 0.0 0.0 0.00 0.00 0.00 1062.3
20260504060210 0 225 0.0 0.0 0.00 0.00 0.00 1061.8
20260504050650 0 229 0.0 0.0 0.00 0.00 0.00 1061.1
20260504050150 0 254 0.0 0.0 0.00 0.00 0.00 1061.0
20260504045650 0 225 0.0 0.0 0.00 0.00 0.00 1060.9
20260504045150 0 262 0.0 0.0 0.00 0.00 0.00 1061.0
20260504044921 0 233 0.0 0.0 0.00 0.00 0.00 1060.9
20260504044150 0 205 0.0 0.0 0.00 0.00 0.00 1060.9
20260504043650 0 227 0.0 0.0 0.00 0.00 0.00 1060.8
20260504043150 0 241 0.0 0.0 0.00 0.00 0.00 1060.8
20260504042650 0 206 0.0 0.0 0.00 0.00 0.00 1060.8
20260504042152 0 206 0.0 0.0 0.00 0.00 0.00 1060.7
20260504041644 0 347 0.0 0.0 0.00 0.00 0.00 1060.7
20260504041142 0 183 0.0 0.0 0.00 0.00 0.00 1060.8
20260504040641 0 214 0.0 0.0 0.00 0.00 0.00 1060.8
20260504040138 0 226 0.0 0.0 0.00 0.00 0.00 1060.8
20260504035637 0 230 0.0 0.0 0.00 0.00 0.00 1060.7
20260504035408 0 206 0.0 0.0 0.00 0.00 0.00 1060.7
20260504034638 0 218 0.0 0.0 0.00 0.00 0.00 1060.7
20260504034406 0 214 0.0 0.0 0.00 0.00 0.00 1060.6
20260504033636 0 256 0.0 0.0 0.00 0.00 0.00 1060.6
20260504033134 0 187 0.0 0.0 0.00 0.00 0.00 1060.6
20260504032634 0 221 0.0 0.0 0.00 0.00 0.00 1060.6
20260504032131 0 191 0.0 0.0 0.00 0.00 0.00 1060.6
20260504031631 0 182 0.0 0.0 0.00 0.00 0.00 1060.7
20260504031130 0 241 0.0 0.0 0.00 0.00 0.00 1060.7
20260504030130 0 219 0.0 0.0 0.00 0.00 0.00 1060.7
20260504025630 0 226 0.0 0.0 0.00 0.00 0.00 1060.8
20260504025128 0 250 0.0 0.0 0.00 0.00 0.00 1060.8
20260504024617 0 246 0.0 0.0 0.00 0.00 0.00 1060.9
20260504024118 0 194 0.0 0.0 0.00 0.00 0.00 1060.9
20260504023559 0 202 0.0 0.0 0.00 0.00 0.00 1060.8
20260504023059 0 237 0.0 0.0 0.00 0.00 0.00 1060.9
20260504022829 0 220 0.0 0.0 0.00 0.00 0.00 1060.8
20260504022058 0 211 0.0 0.0 0.00 0.00 0.00 1060.9
20260504021552 0 210 0.0 0.0 0.00 0.00 0.00 1060.9
20260504021051 0 233 0.0 0.0 0.00 0.00 0.00 1061.0
20260504020550 0 234 0.0 0.0 0.00 0.00 0.00 1060.9
20260504020051 0 197 0.0 0.0 0.00 0.00 0.00 1060.9
20260504015550 0 244 0.0 0.0 0.00 0.00 0.00 1060.9
20260504015317 0 225 0.0 0.0 0.00 0.00 0.00 1060.9
20260504014544 0 227 0.0 0.0 0.00 0.00 0.00 1060.8
20260504014043 0 218 0.0 0.0 0.00 0.00 0.00 1060.7
20260504013540 0 183 0.0 0.0 0.00 0.00 0.00 1060.7
20260504013311 0 219 0.0 0.0 0.00 0.00 0.00 1060.7
20260504012811 0 214 0.0 0.0 0.00 0.00 0.00 1060.7
20260504012038 0 187 0.0 0.0 0.00 0.00 0.00 1060.7
20260504011538 0 228 0.0 0.0 0.00 0.00 0.00 1060.6
20260504011028 0 240 0.0 0.0 0.00 0.00 0.00 1060.6
20260504010527 0 243 0.0 0.0 0.00 0.00 0.00 1060.6
20260504010026 0 238 0.0 0.0 0.00 0.00 0.00 1060.6
20260504005526 0 219 0.0 0.0 0.00 0.00 0.00 1060.5
20260504005023 0 231 0.0 0.0 0.00 0.00 0.00 1060.4
20260504004515 0 206 0.0 0.0 0.00 0.00 0.00 1060.4
20260504004012 0 217 0.0 0.0 0.00 0.00 0.00 1060.4
20260504003508 0 200 0.0 0.0 0.00 0.00 0.00 1060.5
20260504003239 0 197 0.0 0.0 0.00 0.00 0.00 1060.3
20260504002500 0 192 0.0 0.0 0.00 0.00 0.00 1060.2
20260504002000 0 194 0.0 0.0 0.00 0.00 0.00 1060.2
20260504001500 0 226 0.0 0.0 0.00 0.00 0.00 1060.2
20260504000959 0 215 0.0 0.0 0.00 0.00 0.00 1060.1
20260504000459 0 258 0.0 0.0 0.00 0.00 0.00 1060.1
20260503235958 0 241 0.0 0.0 0.00 0.00 0.00 1059.9
20260503235458 0 219 0.0 0.0 0.00 0.00 0.00 1059.8
20260503234956 0 239 0.0 0.0 0.00 0.00 0.00 1059.7
20260503234454 0 210 0.0 0.0 0.00 0.00 0.00 1059.6
20260503233954 0 246 0.0 0.0 0.00 0.00 0.00 1059.6
20260503233454 0 210 0.0 0.0 0.00 0.00 0.00 1059.7
20260503232450 0 214 0.0 0.0 0.00 0.00 0.00 1059.6
20260503231948 0 212 0.0 0.0 0.00 0.00 0.00 1059.7
20260503231447 0 216 0.0 0.0 0.00 0.00 0.00 1059.5
20260503230944 0 221 0.0 0.0 0.00 0.00 0.00 1059.4
20260503230444 0 0.0 0.0 0.00 0.00 0.00 1059.4
20260503225850 0 0.0 0.0 0.00 0.00 0.00 1059.3
20260503225619 0 0.0 0.0 0.00 0.00 0.00 1059.2
20260503224751 0 0.0 0.0 0.00 0.00 0.00 1059.1
20260503224251 0 0.0 0.0 0.00 0.00 0.00 1059.0
20260503223743 0 0.0 0.0 0.00 0.00 0.00 1059.0
20260503223156 0 0.0 0.0 0.00 0.00 0.00 1059.0
20260503222654 0 0.0 0.0 0.00 0.00 0.00 1058.8
20260503222150 0 0.0 0.0 0.00 0.00 0.00 1058.8
20260503221647 0 0.0 0.0 0.00 0.00 0.00 1058.7
20260503221057 0 0.0 0.0 0.00 0.00 0.00 1058.5
20260503220544 0 0.0 0.0 0.00 0.00 0.00 1058.4
20260503220226 0 0.0 0.0 0.00 0.00 0.00 1058.3
20260503215451 0 0.0 0.0 0.00 0.00 0.00 1058.3
20260503214952 0 0.0 0.0 0.00 0.00 0.00 1058.0
20260503214358 0 0.0 0.0 0.00 0.00 0.00 1058.0
20260503213848 0 0.0 0.0 0.00 0.00 0.00 1057.9
20260503213524 0 0.0 0.0 0.00 0.00 0.00 1057.8
20260503212750 0 0.0 0.0 0.00 0.00 0.00 1057.8
20260503212249 0 257 0.0 0.0 0.00 0.00 0.00 1057.8
20260503211745 0 257 0.0 0.0 0.00 0.00 0.00 1057.8
20260503211154 0 257 0.0 0.0 0.00 0.00 0.00 1057.9
20260503210636 0 210 0.0 0.0 0.00 0.00 0.00 1057.8
20260503210136 0 246 0.0 0.0 0.00 0.00 0.00 1057.8
20260503205634 0 240 0.0 0.0 0.00 0.00 0.00 1057.8
20260503205124 0 275 0.0 0.0 0.00 0.00 0.00 1057.7
20260503204623 0 245 0.0 0.0 0.00 0.00 0.00 1057.6
20260503203624 0 268 0.0 0.0 0.00 0.00 0.00 1057.5
20260503203124 0 234 0.0 0.0 0.00 0.00 0.00 1057.5
20260503202558 0 229 0.0 0.0 0.00 0.00 0.00 1057.4
20260503202058 0 267 0.0 0.0 0.00 0.00 0.00 1057.3
20260503201555 0 209 0.0 0.0 0.00 0.00 0.00 1057.3
20260503201327 0 289 0.0 0.0 0.00 0.00 0.00 1057.2
20260503200550 0 251 0.0 0.0 0.00 0.00 0.00 1057.2
20260503200049 0 268 0.0 0.0 0.00 0.00 0.00 1057.2
20260503195819 0 199 0.0 0.0 0.00 0.00 0.00 1057.2
20260503195048 0 216 0.0 0.0 0.00 0.00 0.00 1057.1
20260503194546 0 239 0.0 0.0 0.00 0.00 0.00 1057.1
20260503194315 0 250 0.0 0.0 0.00 0.00 0.00 1057.0
20260503193538 0 262 0.0 0.0 0.00 0.00 0.00 1057.0
20260503193026 0 268 0.0 0.0 0.00 0.00 0.00 1057.0
20260503192526 0 238 0.0 0.0 0.00 0.00 0.00 1056.9
20260503192257 0 276 0.0 0.0 0.00 0.00 0.00 1056.9